Station 46069 (LLNR 181.6) - SOUTH SANTA ROSA - 14 NM SW of Santa Rosa Island, CA Image indicating link to RSS feed of recent meteorological observations for station 46069


Conditions at 46069 as of
(5:30 am PDT)
1230 GMT on 07/20/2024:
     

Click on the graph icon in the table below to see a time series plot of the last five days of that observation.

5-day plot - Wind Direction Wind Direction (WDIR): NW ( 310 deg true )
5-day plot - Wind Speed Wind Speed (WSPD): 17.5 kts
5-day plot - Wind Gust Wind Gust (GST): 21.4 kts
5-day plot - Atmospheric Pressure Atmospheric Pressure (PRES):29.91 in
5-day plot - Air Temperature Air Temperature (ATMP): 58.6 °F
5-day plot - Water Temperature Water Temperature (WTMP): 61.9 °F
5-day plot - Dew Point Dew Point (DEWP): 58.3 °F
5-day plot - Wind Speed at 10 Meters Wind Speed at 10 meters (WSPD10M): 19.4 kts
5-day plot - Wind Speed at 20 Meters Wind Speed at 20 meters (WSPD20M): 19.4 kts
5-day plot -  Wind Speed, Wind Gust and Atmospheric Pressure Combined plot of Wind Speed, Gust, and Air Pressure
Supplemental Measurements
Highest 1-minute Wind Speed
Time (PDT)5-day plot - 1-Minute Wind Speed WSPD 5-day plot - 1-Minute Wind Direction WDIR
5:25 am 19.4 kts-
Previous observations
TIME
(PDT)
5-day plot - Wind Direction
WDIR
 
5-day plot - Wind Speed
WSPD
kts
5-day plot - Wind Gust
GST
kts
5-day plot - Wave Height
WVHT
ft
5-day plot - Dominant Wave Period
DPD
sec
5-day plot - Average Wave Period
APD
sec
5-day plot - Mean Wave Direction
MWD
 
5-day plot - Atmospheric Pressure
PRES
in
5-day plot - Pressure Tendency
PTDY
in
5-day plot - Air Temperature
ATMP
°F
5-day plot - Water Temperature
WTMP
°F
5-day plot - Dew Point
DEWP
°F
5-day plot - Salinity
SAL
psu
5-day plot - Visibility
VIS
nmi
5-day plot - Tide (above MLLW)
TIDE
ft
2024-07-20 05:20 am NW 17.5 21.4 5.2 155.8 SW29.91- 58.5 61.9 58.3---
2024-07-20 05:10 am NW 17.5 21.4 5.2-5.8 SW29.91- 58.5 61.9 58.1---
2024-07-20 05:00 am NW 15.5 21.4----29.91+0.00 58.6 61.9 58.3---
2024-07-20 04:50 amWNW 15.5 17.5 4.9-5.9SSW29.91- 58.6 62.1 58.1---
2024-07-20 04:40 am--- 4.9 165.9SSW--------
2024-07-20 04:30 am NW 15.5 17.5----29.90- 58.8 62.1 58.1---
2024-07-20 04:20 am NW 15.5 19.4 5.2 155.8SSW29.90- 59.0 62.1 58.3---
2024-07-20 04:10 am NW 13.6 19.4----29.90- 59.2 62.1 58.3---
2024-07-20 04:00 am NW 15.5 19.4----29.90+0.00 59.2 62.1 58.3---
2024-07-20 03:50 am NW 15.5 17.5 4.6 165.8SSW29.91- 59.4 62.1 58.5---
2024-07-20 03:40 am NW 15.5 19.4----29.91- 59.4 62.2 58.5---
2024-07-20 03:30 am NW 15.5 19.4----29.91- 59.4 62.2 58.5---
2024-07-20 03:20 am NW 15.5 19.4 4.9 155.7SSW29.91- 59.2 62.2 58.5---
2024-07-20 03:10 am NW 15.5 21.4----29.91- 59.4 62.2 58.5---
2024-07-20 03:00 am NW 15.5 19.4----29.91-0.01 59.5 62.4 58.6---
2024-07-20 02:50 am NW 15.5 19.4 4.6 165.5 SW29.90- 59.5 62.4 58.6---
2024-07-20 02:40 am NW 17.5 21.4----29.90- 59.7 62.4 58.8---
2024-07-20 02:30 am NW 17.5 21.4----29.90- 59.7 62.4 58.8---
2024-07-20 02:20 am NW 17.5 21.4 4.6 165.6 S29.90- 59.7 62.8 58.6---
2024-07-20 02:10 am NW 17.5 21.4 4.6-5.6 S29.91- 59.7 62.8 58.6---
2024-07-20 02:00 am NW 15.5 19.4----29.91-0.02 59.9 63.0 59.0---
2024-07-20 01:50 am NW 17.5 21.4 4.9 155.6 SW29.91- 59.7 63.0 58.8---
2024-07-20 01:40 am NW 15.5 19.4----29.91- 59.9 63.0 59.0---
2024-07-20 01:30 am NW 17.5 21.4----29.91- 59.9 63.3 59.0---
2024-07-20 01:20 am NW 15.5 21.4 4.9 155.7SSW29.91- 59.9 63.7 59.0---
2024-07-20 01:10 am NW 17.5 19.4 4.9-5.7SSW29.91- 59.9 63.9 59.0---
2024-07-20 01:00 am NW 17.5 23.3----29.91-0.02 60.1 64.0 59.2---
2024-07-20 12:50 am NW 17.5 21.4 4.9 155.6SSW29.91- 60.1 64.0 59.2---
2024-07-20 12:40 am NW 17.5 21.4----29.91- 60.1 64.4 59.2---
2024-07-20 12:30 am NW 17.5 23.3----29.91- 59.9 64.4 59.0---
2024-07-20 12:20 am NW 17.5 21.4 5.6 155.8SSE29.91- 59.9- 59.2---
2024-07-20 12:10 amWNW 17.5 21.4 5.6-5.8SSE29.91- 59.9 64.8 59.2---
2024-07-20 12:00 am NW 17.5 23.3----29.91-0.01 59.7 65.1 59.2---
2024-07-19 11:50 pmWNW 17.5 19.4 5.6 155.7SSW29.91- 59.5 64.6 58.8---
2024-07-19 11:40 pmWNW 17.5 21.4 5.6-5.7SSW29.92- 59.4 63.3 58.6---
2024-07-19 11:30 pmWNW 17.5 21.4----29.92- 59.4 63.1 58.6---
2024-07-19 11:20 pm NW 17.5 21.4 5.2 165.5SSW29.92- 59.2 63.0 58.5---
2024-07-19 11:10 pmWNW 17.5 21.4 5.2-5.5SSW29.92- 58.8 62.8 58.3---
2024-07-19 11:00 pmWNW 17.5 21.4----29.93+0.01 58.8 62.8 58.3---
2024-07-19 10:50 pmWNW 17.5 21.4 4.9 155.3 S29.93- 58.8 62.2 58.3---
2024-07-19 10:40 pm NW 17.5 21.4----29.93- 58.8 62.4 58.3---
2024-07-19 10:30 pm NW 17.5 21.4----29.93- 58.5 62.6 57.9---
2024-07-19 10:20 pmWNW 17.5 21.4 4.6 155.2SSE29.93- 58.5 62.4 58.1---
2024-07-19 10:10 pm NW 17.5 21.4 4.6-5.2SSE29.93- 58.5 62.2 58.1---
2024-07-19 10:00 pmWNW 17.5 21.4----29.93+0.02 58.5 62.2 58.1---
2024-07-19 09:50 pmWNW 17.5 21.4 4.9 155.5 S29.93- 58.5 62.2 58.1---
2024-07-19 09:40 pmWNW 17.5 21.4----29.93- 58.5 62.2 58.1---
2024-07-19 09:30 pmWNW 15.5 19.4----29.93- 58.5 62.4 57.9---
2024-07-19 09:20 pm NW 15.5 21.4 4.9 155.3SSW29.93- 58.6 62.4 58.3---
2024-07-19 09:10 pmWNW 15.5 21.4 4.9-5.3SSW29.93- 58.3 62.4 57.9---
2024-07-19 09:00 pmWNW 15.5 19.4----29.93+0.01 58.3 62.4 57.9---
2024-07-19 08:50 pmWNW 17.5 19.4 4.9 165.5 S29.92- 58.5 62.4 58.1---
2024-07-19 08:40 pmWNW 17.5 21.4----29.92- 58.5 62.6 58.1---
2024-07-19 08:30 pmWNW 15.5 19.4----29.92- 58.6 62.6 58.3---
2024-07-19 08:20 pm NW 15.5 21.4 4.9 155.4SSW29.92- 58.6 62.6 58.1---
2024-07-19 08:10 pm NW 17.5 19.4 4.9-5.4SSW29.92- 58.8 62.6 58.3---
2024-07-19 08:00 pm NW 17.5 21.4----29.91-0.02 58.6 62.6 58.1---
2024-07-19 07:50 pm NW 17.5 21.4 4.6 155.5 S29.91- 58.8 62.6 58.1---
2024-07-19 07:40 pm NW 15.5 19.4----29.92- 59.0 62.6 58.3---
2024-07-19 07:30 pm NW 17.5 21.4----29.91- 59.0 62.6 58.3---
2024-07-19 07:20 pm NW 17.5 21.4 4.9 145.5 SW29.91- 59.0 62.6 58.3---
2024-07-19 07:10 pm NW 17.5 21.4 4.9-5.5 SW29.91- 59.0 62.6 58.3---
2024-07-19 07:00 pmWNW 17.5 21.4----29.91-0.04 59.0 62.6 58.3---
2024-07-19 06:50 pm NW 17.5 21.4 4.9 155.7 S29.91- 59.2 62.8 58.5---
2024-07-19 06:40 pmWNW 17.5 21.4----29.91- 59.2 62.8 58.5---
2024-07-19 06:30 pmWNW 17.5 21.4----29.91- 59.2 62.8 58.5---
2024-07-19 06:20 pm NW 17.5 21.4 4.6 155.5WNW29.91- 59.2 62.8 58.5---
2024-07-19 06:10 pmWNW 17.5 21.4 4.6-5.5WNW29.91- 59.0 62.8 58.3---
2024-07-19 06:00 pmWNW 15.5 21.4----29.91-0.05 59.2 62.6 58.3---
2024-07-19 05:50 pm NW 15.5 19.4 4.9 156.1SSW29.92- 59.0 62.6 58.1---
2024-07-19 05:40 pm NW 15.5 17.5----29.93- 59.2 62.6 58.5---
2024-07-19 05:30 pmWNW 17.5 19.4----29.93- 59.2 62.8 58.5---
2024-07-19 05:20 pmWNW 17.5 19.4 4.6 166.0 S29.92- 59.0 62.8 58.3---
2024-07-19 05:10 pmWNW 15.5 19.4 4.6-6.0 S29.93- 58.8 62.8 58.1---
2024-07-19 05:00 pmWNW 15.5 19.4----29.94-0.04 58.8 62.8 58.1---
2024-07-19 04:50 pmWNW 15.5 19.4 4.9 156.0SSW29.93- 58.8 62.8 58.1---
2024-07-19 04:40 pm NW 13.6 17.5----29.94- 58.6 62.8 57.9---
2024-07-19 04:20 pmWNW 13.6 17.5 4.9 166.1SSW29.95- 58.5 63.0 57.7---
2024-07-19 04:10 pmWNW 15.5 19.4----29.95- 58.6 63.0 57.9---
2024-07-19 04:00 pmWNW 15.5 17.5----29.95-0.04 58.5 62.8 57.6---
2024-07-19 03:50 pmWNW 13.6 17.5 5.2 85.9 NW29.96- 58.3 62.8 57.6---
2024-07-19 03:40 pmWNW 13.6 17.5 5.2-5.9 NW29.96- 58.1 62.8 57.4---
2024-07-19 03:30 pmWNW 13.6 17.5----29.96- 58.3 62.8 57.7---
2024-07-19 03:20 pmWNW 13.6 17.5 4.6 165.9 S29.96- 58.3 63.0 57.7---
2024-07-19 03:10 pmWNW 13.6 15.5 4.6-5.9 S29.97- 58.3 63.0 57.9---
2024-07-19 03:00 pmWNW 13.6 17.5----29.97-0.02 58.1 63.0 57.6---
2024-07-19 02:50 pmWNW 13.6 17.5 5.2 156.2SSW29.97- 58.5 63.0 57.9---
2024-07-19 02:40 pmWNW 13.6 17.5----29.97- 58.3 63.0 57.7---
2024-07-19 02:30 pmWNW 15.5 19.4----29.97- 58.3 63.0 57.7---
2024-07-19 02:20 pmWNW 15.5 19.4 5.2 166.5 S29.97- 58.1 62.8 57.6---
2024-07-19 02:10 pmWNW 13.6 15.5 5.2-6.5 S29.97- 58.1 62.8 57.7---
2024-07-19 02:00 pmWNW 13.6 15.5----29.97-0.02 57.9 62.8 57.4---
2024-07-19 01:50 pmWNW 11.7 15.5 5.6 156.9SSW29.98- 57.9 62.8 57.6---
2024-07-19 01:40 pmWNW 11.7 13.6----29.98- 57.7 62.8 57.4---
2024-07-19 01:30 pmWNW 11.7 13.6----29.98- 57.7 62.8 57.4---
2024-07-19 01:20 pmWNW 11.7 13.6 4.9 156.5SSW29.98- 57.7 62.6 57.4---
2024-07-19 01:10 pmWNW 9.7 13.6 4.9-6.5SSW29.98- 57.7 62.6 57.4---
2024-07-19 01:00 pmWNW 11.7 15.5----29.98+0.00 57.7 62.8 57.4---
2024-07-19 12:50 pmWNW 9.7 11.7 5.6 156.8 SW29.98- 57.6 62.8 57.2---
2024-07-19 12:40 pmWNW 9.7 13.6----29.99- 57.4 62.8 56.8---
2024-07-19 12:30 pmWNW 9.7 13.6----29.99- 57.4 62.8 56.8---
2024-07-19 12:20 pmWNW 9.7 13.6 5.2 156.8SSW29.99- 57.2 62.8 56.8---
2024-07-19 12:10 pmWNW 9.7 15.5 5.2-6.8SSW29.99- 57.2 62.8 56.7---
2024-07-19 12:00 pmWNW 7.8 11.7----29.99+0.00 57.6 62.8 57.2---
2024-07-19 11:50 amWNW 7.8 11.7 4.9 86.7 NW29.99- 57.0 62.8 56.7---
2024-07-19 11:40 amWNW 7.8 11.7----29.99- 56.8 62.8 56.5---
2024-07-19 11:30 amWNW 7.8 11.7----29.99- 57.0 63.0 56.8---
2024-07-19 11:20 amWNW 7.8 11.7 5.2 156.5SSE29.99- 57.0 63.0 56.8---
2024-07-19 11:10 amWNW 7.8 11.7 5.2-6.5SSE29.99- 57.0 62.8 57.0---
2024-07-19 11:00 amWNW 7.8 11.7----29.99+0.01 56.8 63.0 56.7---
2024-07-19 10:50 amWNW 7.8 11.7 4.9 156.7 SW29.99- 57.0 63.0 57.0---
2024-07-19 10:40 amWNW 7.8 11.7----29.99- 57.0 63.0 57.0---
2024-07-19 10:30 amWNW 7.8 9.7----29.99- 56.8 62.8 56.8---
2024-07-19 10:20 am NW 7.8 11.7 5.2 156.7 S29.99- 56.8 62.8 56.8---
2024-07-19 10:10 am NW 7.8 9.7 5.2-6.7 S29.99- 56.8 62.8 56.8---
2024-07-19 10:00 am NW 5.8 9.7----29.99+0.02 56.8 62.8 56.8---
2024-07-19 09:50 am NW 7.8 9.7 5.6 166.7SSW29.98- 56.8 62.8 56.8---
2024-07-19 09:40 am NW 7.8 11.7----29.98- 56.8 62.6 56.8---
2024-07-19 09:30 am NW 7.8 9.7----29.98- 57.0 62.4 57.0---
2024-07-19 09:20 amWNW 5.8 9.7 5.6 86.5 NW29.98- 57.2 62.4 57.2---
2024-07-19 09:10 am NW 5.8 9.7----29.98- 57.2 62.6 57.2---
2024-07-19 09:00 am NW 5.8 9.7----29.98+0.03 57.2 62.6 57.2---
2024-07-19 08:50 am NW 5.8 9.7 5.9 166.7 S29.98- 57.2 62.6 57.2---
2024-07-19 08:40 am NW 7.8 11.7----29.98- 57.6 62.6 57.6---
2024-07-19 08:30 amNNW 5.8 9.7----29.98- 57.4 62.6 57.4---
2024-07-19 08:20 amNNW 7.8 11.7 5.6 156.5SSW29.98- 57.2 62.6 57.2---
2024-07-19 08:10 amNNW 7.8 11.7 5.6-6.5SSW29.98- 57.0 62.6 57.0---
2024-07-19 08:00 am NW 7.8 9.7----29.98+0.03 57.0 62.6 57.0---
2024-07-19 07:50 am NW 9.7 11.7 5.9 86.4 NW29.98- 56.7 62.6 56.7---
2024-07-19 07:40 am NW 7.8 11.7 5.9-6.4 NW29.97- 56.8 62.6 56.8---
2024-07-19 07:30 am NW 7.8 13.6----29.97- 57.0 62.6 57.0---
2024-07-19 07:20 am NW 7.8 11.7 5.9 156.4 SW29.97- 57.4 62.6 57.2---
2024-07-19 07:10 amNNW 9.7 11.7 5.9-6.4 SW29.97- 57.4 62.8 57.4---
2024-07-19 07:00 am N 9.7 13.6----29.96+0.02 57.6 62.8 57.6---
2024-07-19 06:50 am N 9.7 11.7 5.9 156.2SSW29.96- 57.2 62.8 57.2---
2024-07-19 06:40 amNNW 9.7 13.6----29.96- 56.8 62.8 56.8---
2024-07-19 06:30 am NW 11.7 13.6----29.96- 56.7 62.8 56.7---
2024-07-19 06:20 am NW 13.6 15.5 6.6 156.5 S29.95- 56.3 62.6 56.3---
2024-07-19 06:10 am NW 13.6 17.5 6.6-6.5 S29.95- 56.3 62.6 56.3---
2024-07-19 06:00 am NW 13.6 17.5----29.96+0.00 56.5 62.6 56.5---
2024-07-19 05:50 amNNW 13.6 17.5 5.9 155.8 S29.96- 56.7 62.4 56.7---

Detailed Wave Summary
for 46069 as of (5:10 am PDT)
1210 GMT on 07/20/2024:

These wave data are displayed in rounded times.

     

Click on the graph icon in the table below to see a time series plot of the last five days of that observation.

5-day plot - Significant Wave Height Significant Wave Height (WVHT): 5.2 ft
5-day plot - Swell Height Swell Height (SwH): 3.9 ft
5-day plot - Swell Period Swell Period (SwP): 14.8 sec
5-day plot - Swell Direction Swell Direction (SwD): SW
5-day plot - Wind Wave Height Wind Wave Height (WWH): 3.3 ft
5-day plot - Wind Wave Period Wind Wave Period (WWP): 6.2 sec
5-day plot - Wind Wave Direction Wind Wave Direction (WWD):WNW
5-day plot - Wave Steepness Wave Steepness (STEEPNESS): SWELL
5-day plot - Average Wave Period Average Wave Period (APD): 5.8 sec
Previous observations
TIME
(PDT)
5-day plot - Wave Height
WVHT
ft
5-day plot - Swell Height
SwH
ft
5-day plot - Swell Period
SwP
sec
5-day plot - Swell Direction
SwD
 
5-day plot - Wind Wave Height
WWH
ft
5-day plot - Wind Wave Period
WWP
sec
5-day plot - Wind Wave Direction
WWD
 
5-day plot - Wave Steepness
STEEPNESS
 
5-day plot - Average Wave Period
APD
sec
2024-07-20 04:40 am 4.9 3.6 16.0SSW 3.0 4.2 NW SWELL 5.9
2024-07-20 04:10 am 5.2 3.9 14.8SSW 3.3 6.7 NW SWELL 5.8
2024-07-20 03:40 am 4.6 3.3 16.0SSW 3.3 5.9 WNW SWELL 5.8
2024-07-20 03:10 am 4.9 3.6 14.8SSW 3.6 7.1 WNW SWELL 5.7
2024-07-20 02:40 am 4.6 3.0 16.0 SW 3.6 7.1 NW AVERAGE 5.5
2024-07-20 02:10 am 4.6 3.3 16.0 S 3.6 6.2 WNW AVERAGE 5.6
2024-07-20 01:40 am 4.9 3.3 14.8 SW 3.6 5.6 WNW AVERAGE 5.6
2024-07-20 01:10 am 4.9 3.0 14.8SSW 3.9 7.1 NW AVERAGE 5.7
2024-07-20 12:40 am 4.9 3.0 14.8SSW 4.3 5.6 WNW AVERAGE 5.6
2024-07-20 12:10 am 5.6 3.0 14.8SSE 4.6 7.1 NW AVERAGE 5.8
2024-07-19 11:40 pm 5.6 3.3 14.8SSW 4.3 7.1 NW AVERAGE 5.7
2024-07-19 11:10 pm 5.2 3.3 16.0SSW 3.9 6.2 WNW AVERAGE 5.5
2024-07-19 10:40 pm 4.9 3.3 14.8 S 3.6 4.8 WNW AVERAGE 5.3
2024-07-19 10:10 pm 4.6 3.3 14.8SSE 3.3 4.8 WNW SWELL 5.2
2024-07-19 09:40 pm 4.9 3.9 14.8 S 3.3 4.0 NW SWELL 5.5
2024-07-19 09:10 pm 4.9 3.3 14.8SSW 3.3 6.2 NW SWELL 5.3
2024-07-19 08:40 pm 4.9 3.6 16.0 S 3.3 5.9 WNW SWELL 5.5
2024-07-19 08:10 pm 4.9 3.6 14.8SSW 3.3 4.8 WNW SWELL 5.4
2024-07-19 07:40 pm 4.6 3.6 14.8 S 3.0 4.8 NW SWELL 5.5
2024-07-19 07:10 pm 4.9 3.6 13.8 SW 3.0 5.6 WNW SWELL 5.5
2024-07-19 06:40 pm 4.9 3.9 14.8 S 3.0 6.2 NW SWELL 5.7
2024-07-19 06:10 pm 4.6 3.6 14.8WNW 3.0 5.9 NW SWELL 5.5
2024-07-19 05:40 pm 4.9 4.3 14.8SSW 3.0 6.2 NW SWELL 6.1
2024-07-19 05:10 pm 4.6 3.6 16.0 S 2.6 5.6 WNW SWELL 6.0
2024-07-19 04:40 pm 4.9 3.9 14.8SSW 3.0 5.3 WNW SWELL 6.0
2024-07-19 04:10 pm 4.9 3.9 16.0SSW 3.0 6.2 NW SWELL 6.1
2024-07-19 03:40 pm 5.2 3.9 7.7 NW 3.3 5.0 WNW AVERAGE 5.9
2024-07-19 03:10 pm 4.6 3.6 16.0 S 3.0 5.3 NW SWELL 5.9
2024-07-19 02:40 pm 5.2 4.3 14.8SSW 3.0 5.9 NW SWELL 6.2
2024-07-19 02:10 pm 5.2 4.3 16.0 S 3.3 5.0 WNW SWELL 6.5
2024-07-19 01:40 pm 5.6 4.9 14.8SSW 2.6 5.3 WNW SWELL 6.9
2024-07-19 01:10 pm 4.9 4.6 14.8SSW 2.0 4.5 WNW SWELL 6.5
2024-07-19 12:40 pm 5.6 5.2 14.8 SW 2.0 4.5 WNW SWELL 6.8
2024-07-19 12:10 pm 5.2 4.9 14.8SSW 1.6 4.2 NW SWELL 6.8
2024-07-19 11:40 am 4.9 4.9 7.7 NW 1.3 3.8 W AVERAGE 6.7
2024-07-19 11:10 am 5.2 4.9 14.8SSE 1.3 3.7 WNW SWELL 6.5
2024-07-19 10:40 am 4.9 4.9 14.8 SW 1.3 3.7 WNW SWELL 6.7
2024-07-19 10:10 am 5.2 4.9 14.8 S 1.3 3.8 WNW SWELL 6.7
2024-07-19 09:40 am 5.6 5.6 16.0SSW 1.3 4.0 WNW SWELL 6.7
2024-07-19 09:10 am 5.6 5.6 7.7 NW 1.3 3.7 WNW STEEP 6.5
2024-07-19 08:40 am 5.9 5.6 16.0 S 1.3 3.6 WNW SWELL 6.7
2024-07-19 08:10 am 5.6 5.2 14.8SSW 1.6 4.0 WNW SWELL 6.5
2024-07-19 07:40 am 5.9 5.6 7.7 NW 1.6 4.0 NW STEEP 6.4
2024-07-19 07:10 am 5.9 5.6 14.8 SW 2.0 4.3 NW SWELL 6.4
2024-07-19 06:40 am 5.9 5.6 14.8SSW 2.0 4.3 NW SWELL 6.2
2024-07-19 06:10 am 6.6 5.2 14.8 S 4.3 6.2 NW SWELL 6.5

Plot of wave energy versus frequency (and period)